Location: Beverley
(50.2667°N, 107.9667°W)
Time: 00:35:57
(UTC+00:00)

Envisat - Pass Details

Date: 22 January 2022
Orbit: 764 x 765 km, 98.2° (Epoch: 22 May)

Event Time Altitude Azimuth Distance (km) Brightness Sun altitude
Rises 13:24:53 0° 6° (N) 3,243 6.2 -14.7°
Reaches altitude 10° 13:27:27 10° 356° (N) 2,313 5.3 -14.3°
Maximum altitude 13:31:45 29° 298° (WNW) 1,397 3.8 -13.7°
Drops below altitude 10° 13:36:02 10° 240° (WSW) 2,301 5.1 -13.0°
Sets 13:38:35 0° 229° (SW) 3,223 5.9 -12.6°
